Regional Weather Roundup
Issued by NWS State College, PA

Home | Current Version | Previous Version | Text Only | Print | Product List | Glossary On
Versions: 1 2 3 4 5 6 7 8 9 10 11 12 13 14 15 16 17 18 19 20 21 22 23 24 25 26 27 28 29 30 31 32 33 34 35 36 37 38 39 40 41 42 43 44 45 46 47 48 49 50
000
ASUS41 KCTP 060210
RWRCTP

REGIONAL WEATHER ROUNDUP
NATIONAL WEATHER SERVICE STATE COLLEGE PA
1000 PM EDT SUN JUL 05 2015

Note: "fair" indicates few or no clouds below 12,000 feet with no
significant weather and/or obstructions to visibility.

* = STATION THAT DOES NOT REPORT PRECIPITATION /E.G. RAIN...SNOW...ETC/
    THUNDER OR FOG.

PAZ002>004-007>009-013>016-020>023-029>032-060300-
WESTERN PENNSYLVANIA

CITY           SKY/WX    TMP DP  RH WIND       PRES   REMARKS
ERIE           MOCLDY    69  56  62 CALM      30.11R
MEADVILLE      MOCLDY    70  60  70 CALM      30.14R
FRANKLIN*      MOCLDY    66  55  68 CALM      30.16R
NEW CASTLE     FAIR      69  58  68 CALM      30.12S
BEAVER COUNTY  NOT AVBL
BUTLER*        CLOUDY    68  63  83 NE6       30.13R
PITTSBURGH INT CLOUDY    76  59  55 NE7       30.10R
PITTSBURGH     CLOUDY    73  58  59 NE6       30.09S
INDIANA*       PTCLDY    72  64  78 E6        30.17R
LATROBE        MOCLDY    73  66  78 CALM      30.12R
WASHINGTON CO* NOT AVBL
$$

PAZ004>006-010>012-017>019-024>028-033>037-041-042-045-046-049>053-060300-
CENTRAL PENNSYLVANIA

CITY           SKY/WX    TMP DP  RH WIND       PRES   REMARKS
BRADFORD       CLOUDY    62  58  86 SE3       30.18R
DUBOIS         CLOUDY    69  58  67 SE6       30.15R
CLEARFIELD     CLOUDY    66  61  84 CALM      30.16S
JOHNSTOWN      CLOUDY    68  62  81 SE5       30.18R
ALTOONA        CLOUDY    69  65  86 E5        30.17R
STATE COLLEGE  NOT AVBL
WILLIAMSPORT   MOCLDY    66  60  81 CALM      30.13R
SELINSGROVE    CLOUDY    67  64  90 CALM      30.14R FOG
FT INDIANTOWN  CLOUDY    67  65  93 N2        30.14S
CAPITAL CITY   CLOUDY    72  65  78 CALM      30.13S
HARRISBURG     CLOUDY    71  66  84 CALM      30.12S
YORK           CLOUDY    73  68  84 SE3       30.13S
$$

PAZ038>040-043-044-047-048-054-055-060>062-067>071-060300-
EASTERN PENNSYLVANIA

CITY           SKY/WX    TMP DP  RH WIND       PRES   REMARKS
SCRANTON       PTCLDY    69  58  67 SE5       30.16R
MOUNT POCONO   PTCLDY    61  57  87 CALM      30.20R
ALLENTOWN      MOCLDY    74  63  68 CALM      30.14R
QUAKERTOWN*    MOCLDY    70  66  88 CALM      30.16R
READING        CLOUDY    73  66  78 CALM      30.13R
LANCASTER      MOCLDY    72  66  81 CALM      30.14R
COATESVILLE    MOCLDY    72  68  88 CALM      30.16S
POTTSTOWN      CLOUDY    72  67  84 CALM      30.15S
BLUE BELL      MOCLDY    72  68  88 CALM      30.13S
DOYLESTOWN     MOCLDY    70  65  84 CALM      30.14R
WILLOW GROVE   NOT AVBL
NORTH PHILA    MOCLDY    79  63  57 CALM      30.15R
PHILADELPHIA   MOCLDY    77  67  71 S7        30.14R
$$


USA.gov is the U.S. government's official web portal to all federal, state and local government web resources and services.